Tracking 29932 objects as of 4-Dec-2024
HD Live streaming from Space Station
objects crossing your sky now

STARLINK-31002

Track STARLINK-31002 now!
10-day predictions
STARLINK-31002 is classified as:


NORAD ID: 58495
Int'l Code: 2023-186Y
Perigee: 564.1 km
Apogee: 568.3 km
Inclination: 43.0 °
Period: 95.8 minutes
Semi major axis: 6937 km
RCS: Unknown
Launch date: December 3, 2023
Source: United States (US)
Launch site: AIR FORCE EASTERN TEST RANGE (AFETR)
Your satellite tracking list
Your tracking list is empty




NASA's NSSDC Master Catalog

Two Line Element Set (TLE):
1 58495U 23186Y   24338.51489659  .00002518  00000-0  20145-3 0  9999
2 58495  43.0084  52.9331 0003029 275.9791  84.0707 15.02535641 56648
Source of the keplerian elements: AFSPC